Torna al catalogo

ERNST

AttivoRadioamatoreSSO
NORAD 60528·PAYLOAD·🇩🇪 Germany

Lanciato Aug 16, 2024 da Vandenberg Space Force Base

Loading…

Prossimi Passaggi (prossime 24 ore)

TLE

AggiornatoSource: Space-Track

Epoca: Sep 14, 2026, 11:57 UTC

1 60528U 24149BN  26257.49815946  .00010880  00000-0  26343-3 0  9997
2 60528  97.3760 341.9994 0004914 346.4585  13.6529 15.41270693116021

Traccia ERNST in tempo reale con AllMySat

Download on the App Store